�������l�o���
Date,Time,MP-1(��Sv/h),MP-2(��Sv/h),MP-3(��Sv/h),MP-4(��Sv/h),MP-5(��Sv/h),MP-6(��Sv/h),MP-7(��Sv/h),MP-8(��Sv/h),����,����(m/s),���J
2020/05/04,00:00,0.711,1.029,0.673,1.241,0.892,0.405,0.703,0.665,��,10.5,��
2020/05/04,00:10,0.711,1.029,0.673,1.240,0.891,0.405,0.704,0.664,��,9.6,��
2020/05/04,00:20,0.711,1.030,0.673,1.242,0.888,0.405,0.704,0.665,��,10.5,��
2020/05/04,00:30,0.712,1.030,0.674,1.241,0.890,0.405,0.703,0.663,��,9.9,��
2020/05/04,00:40,0.712,1.028,0.673,1.240,0.889,0.406,0.705,0.665,��,10.5,��
2020/05/04,00:50,0.710,1.028,0.673,1.242,0.890,0.406,0.705,0.665,��,9.9,��
2020/05/04,01:00,0.710,1.028,0.674,1.242,0.888,0.406,0.702,0.665,��,10.9,��
2020/05/04,01:10,0.710,1.029,0.673,1.243,0.889,0.406,0.704,0.665,��,9.2,��
2020/05/04,01:20,0.710,1.028,0.673,1.243,0.890,0.405,0.704,0.664,��,11.1,��
2020/05/04,01:30,0.710,1.030,0.673,1.242,0.890,0.406,0.704,0.662,��,9.7,��
2020/05/04,01:40,0.711,1.031,0.673,1.241,0.891,0.405,0.704,0.665,��,10.2,��
2020/05/04,01:50,0.709,1.029,0.675,1.242,0.890,0.407,0.704,0.664,��,10.6,��
2020/05/04,02:00,0.710,1.031,0.673,1.243,0.888,0.405,0.704,0.664,��,10.2,��
2020/05/04,02:10,0.711,1.029,0.675,1.242,0.891,0.405,0.702,0.663,��,10.5,��
2020/05/04,02:20,0.711,1.031,0.673,1.242,0.889,0.405,0.703,0.664,��,11.3,��
2020/05/04,02:30,0.711,1.027,0.673,1.240,0.890,0.406,0.703,0.665,��,12.0,��
2020/05/04,02:40,0.711,1.030,0.673,1.241,0.890,0.406,0.704,0.664,��쐼,9.1,��
2020/05/04,02:50,0.711,1.027,0.674,1.243,0.889,0.407,0.702,0.663,��,9.8,��
2020/05/04,03:00,0.712,1.029,0.673,1.240,0.889,0.406,0.705,0.665,��,10.5,��
2020/05/04,03:10,0.711,1.029,0.674,1.242,0.889,0.405,0.703,0.664,��,9.9,��
2020/05/04,03:20,0.710,1.031,0.673,1.240,0.888,0.406,0.702,0.665,��쐼,8.6,��
2020/05/04,03:30,0.712,1.031,0.673,1.242,0.891,0.406,0.704,0.663,��,9.9,��
2020/05/04,03:40,0.710,1.030,0.674,1.241,0.885,0.406,0.702,0.664,��,10.2,��
2020/05/04,03:50,0.711,1.028,0.673,1.243,0.890,0.406,0.702,0.664,��,11.0,��
2020/05/04,04:00,0.710,1.030,0.674,1.242,0.887,0.405,0.701,0.663,��,10.2,��
2020/05/04,04:10,0.710,1.031,0.674,1.240,0.889,0.405,0.704,0.664,��,10.5,��
2020/05/04,04:20,0.709,1.026,0.674,1.241,0.889,0.404,0.702,0.665,��,11.3,�L
2020/05/04,04:30,0.710,1.029,0.674,1.241,0.888,0.406,0.703,0.664,��쐼,11.4,��
2020/05/04,04:40,0.711,1.030,0.673,1.243,0.887,0.406,0.701,0.662,��,8.1,��
2020/05/04,04:50,0.708,1.032,0.673,1.239,0.891,0.405,0.702,0.665,��,8.0,��
2020/05/04,05:00,0.708,1.029,0.674,1.242,0.889,0.405,0.702,0.663,��,9.0,��
2020/05/04,05:10,0.708,1.027,0.673,1.240,0.889,0.405,0.702,0.666,��,11.4,��
2020/05/04,05:20,0.709,1.027,0.673,1.241,0.890,0.406,0.701,0.665,��,9.9,��
2020/05/04,05:30,0.708,1.027,0.671,1.241,0.889,0.407,0.702,0.666,��,11.9,��
2020/05/04,05:40,0.709,1.027,0.672,1.241,0.889,0.404,0.702,0.665,��,10.5,��
2020/05/04,05:50,0.709,1.027,0.674,1.241,0.890,0.404,0.702,0.664,��,9.4,��
2020/05/04,06:00,0.709,1.026,0.671,1.239,0.889,0.405,0.701,0.664,��,9.0,��
2020/05/04,06:10,0.710,1.026,0.673,1.241,0.891,0.404,0.702,0.665,��,8.3,��
2020/05/04,06:20,0.708,1.027,0.674,1.240,0.889,0.405,0.700,0.663,��,9.2,��
2020/05/04,06:30,0.709,1.029,0.674,1.242,0.890,0.406,0.701,0.665,��,9.1,��
2020/05/04,06:40,0.710,1.028,0.672,1.241,0.890,0.406,0.701,0.663,��,10.8,�L
2020/05/04,06:50,0.711,1.027,0.674,1.242,0.889,0.405,0.702,0.663,��,10.7,��
2020/05/04,07:00,0.708,1.026,0.674,1.240,0.888,0.405,0.700,0.664,��,9.7,��
2020/05/04,07:10,0.709,1.026,0.673,1.241,0.889,0.405,0.703,0.662,��,9.3,�L
2020/05/04,07:20,0.709,1.026,0.673,1.240,0.886,0.406,0.701,0.664,��,8.3,�L
2020/05/04,07:30,0.710,1.028,0.673,1.242,0.885,0.406,0.701,0.663,��,8.6,�L
2020/05/04,07:40,0.709,1.028,0.674,1.244,0.888,0.405,0.703,0.663,��,8.2,�L
2020/05/04,07:50,0.710,1.027,0.674,1.243,0.888,0.405,0.703,0.665,��,6.9,�L
2020/05/04,08:00,0.711,1.024,0.675,1.241,0.888,0.406,0.703,0.662,��,6.9,��
2020/05/04,08:10,0.709,1.027,0.674,1.242,0.889,0.406,0.702,0.663,��,6.8,��
2020/05/04,08:20,0.712,1.028,0.674,1.241,0.890,0.406,0.702,0.663,��,6.1,��
2020/05/04,08:30,0.709,1.029,0.673,1.241,0.890,0.405,0.701,0.660,��,7.0,��
2020/05/04,08:40,0.708,1.029,0.672,1.239,0.889,0.405,0.702,0.662,��쓌,8.6,��
2020/05/04,08:50,0.709,1.027,0.673,1.241,0.888,0.404,0.702,0.661,��,9.5,��
2020/05/04,09:00,0.710,1.025,0.671,1.242,0.888,0.404,0.700,0.661,��,7.5,��
2020/05/04,09:10,0.708,1.025,0.672,1.240,0.887,0.405,0.700,0.662,��,6.1,��
2020/05/04,09:20,0.708,1.027,0.670,1.242,0.889,0.405,0.701,0.662,��쐼,6.9,��
2020/05/04,09:30,0.708,1.028,0.673,1.243,0.887,0.404,0.702,0.661,��,5.3,��
2020/05/04,09:40,0.708,1.025,0.673,1.242,0.890,0.407,0.703,0.662,��,7.1,��
2020/05/04,09:50,0.708,1.027,0.671,1.244,0.890,0.406,0.702,0.662,��,7.8,��
2020/05/04,10:00,0.709,1.026,0.671,1.244,0.887,0.406,0.703,0.662,��,7.5,��
2020/05/04,10:10,0.709,1.028,0.672,1.242,0.893,0.405,0.702,0.662,��,8.5,��
2020/05/04,10:20,0.709,1.029,0.670,1.244,0.889,0.406,0.702,0.662,��쓌,10.5,��
2020/05/04,10:30,0.710,1.029,0.672,1.245,0.893,0.405,0.704,0.662,��,11.1,��
2020/05/04,10:40,0.710,1.031,0.671,1.240,0.891,0.405,0.703,0.661,��,10.6,��
2020/05/04,10:50,0.709,1.030,0.672,1.242,0.892,0.404,0.703,0.662,��,10.6,��
2020/05/04,11:00,0.711,1.028,0.672,1.241,0.890,0.407,0.704,0.665,��,8.8,��
2020/05/04,11:10,0.710,1.028,0.671,1.239,0.891,0.405,0.704,0.662,��,10.0,��
2020/05/04,11:20,0.712,1.029,0.671,1.241,0.890,0.406,0.704,0.663,��,9.5,��
2020/05/04,11:30,0.711,1.029,0.672,1.241,0.892,0.406,0.704,0.663,��,9.4,��
2020/05/04,11:40,0.712,1.029,0.672,1.241,0.891,0.405,0.702,0.663,��,9.5,��
2020/05/04,11:50,0.709,1.030,0.672,1.241,0.892,0.406,0.702,0.661,��쓌,10.9,��
2020/05/04,12:00,0.709,1.030,0.672,1.239,0.893,0.406,0.702,0.662,��,8.7,��
2020/05/04,12:10,0.710,1.029,0.673,1.239,0.893,0.405,0.703,0.662,��,8.8,��
2020/05/04,12:20,0.709,1.030,0.671,1.241,0.893,0.406,0.703,0.662,��쓌,8.9,��
2020/05/04,12:30,0.709,1.028,0.671,1.240,0.894,0.405,0.702,0.663,��쓌,7.2,��
2020/05/04,12:40,0.711,1.031,0.670,1.241,0.893,0.404,0.704,0.661,��,9.4,��
2020/05/04,12:50,0.711,1.029,0.670,1.241,0.892,0.407,0.704,0.663,��쓌,7.8,��
2020/05/04,13:00,0.708,1.030,0.671,1.239,0.893,0.406,0.704,0.663,��,9.5,��
2020/05/04,13:10,0.710,1.030,0.673,1.242,0.894,0.406,0.704,0.662,��,9.9,��
2020/05/04,13:20,0.710,1.029,0.673,1.243,0.893,0.406,0.704,0.663,��,9.2,��
2020/05/04,13:30,0.709,1.031,0.672,1.242,0.893,0.407,0.704,0.663,��,10.0,��
2020/05/04,13:40,0.709,1.031,0.674,1.247,0.894,0.406,0.703,0.663,��,10.8,��
2020/05/04,13:50,0.710,1.027,0.673,1.243,0.893,0.404,0.705,0.664,��,8.8,��
2020/05/04,14:00,0.711,1.030,0.674,1.244,0.894,0.406,0.704,0.664,��,9.2,��
2020/05/04,14:10,0.710,1.029,0.674,1.244,0.893,0.407,0.705,0.662,��,7.6,��
2020/05/04,14:20,0.711,1.031,0.673,1.243,0.894,0.407,0.703,0.662,��,8.1,��
2020/05/04,14:30,0.713,1.030,0.671,1.240,0.895,0.406,0.702,0.661,��,9.8,��
2020/05/04,14:40,0.710,1.031,0.672,1.241,0.891,0.407,0.700,0.662,��쓌,11.6,��
2020/05/04,14:50,0.711,1.029,0.671,1.242,0.893,0.407,0.702,0.661,��,11.9,��
2020/05/04,15:00,0.710,1.029,0.670,1.241,0.894,0.406,0.703,0.661,��,9.8,��
2020/05/04,15:10,0.710,1.030,0.673,1.241,0.893,0.406,0.705,0.664,��,9.9,��
2020/05/04,15:20,0.712,1.031,0.673,1.242,0.892,0.407,0.704,0.663,��,6.0,��
2020/05/04,15:30,0.711,1.031,0.673,1.241,0.895,0.407,0.705,0.662,��,7.1,��
2020/05/04,15:40,0.710,1.031,0.673,1.243,0.893,0.406,0.706,0.663,��쓌,5.6,��
2020/05/04,15:50,0.710,1.029,0.674,1.245,0.892,0.406,0.703,0.660,��쓌,8.2,��
2020/05/04,16:00,0.712,1.028,0.672,1.245,0.892,0.407,0.703,0.661,��쓌,9.6,��
2020/05/04,16:10,0.709,1.028,0.671,1.238,0.893,0.405,0.702,0.660,��,10.5,��
2020/05/04,16:20,0.710,1.031,0.673,1.243,0.893,0.407,0.701,0.663,��,9.9,��
2020/05/04,16:30,0.710,1.029,0.672,1.243,0.896,0.406,0.704,0.662,��,9.7,��
2020/05/04,16:40,0.710,1.029,0.672,1.242,0.892,0.406,0.704,0.663,��,11.1,��
2020/05/04,16:50,0.712,1.031,0.674,1.244,0.893,0.406,0.704,0.663,��,9.9,��
2020/05/04,17:00,0.711,1.030,0.672,1.243,0.893,0.405,0.705,0.664,��,10.3,��
2020/05/04,17:10,0.712,1.029,0.672,1.244,0.894,0.408,0.705,0.663,��,10.0,��
2020/05/04,17:20,0.712,1.029,0.673,1.241,0.895,0.406,0.704,0.665,��,8.6,��
2020/05/04,17:30,0.711,1.030,0.673,1.244,0.894,0.407,0.704,0.662,��,7.5,��
2020/05/04,17:40,0.712,1.033,0.676,1.245,0.893,0.405,0.703,0.662,��,6.5,��
2020/05/04,17:50,0.711,1.032,0.674,1.245,0.892,0.405,0.703,0.664,��,6.3,��
2020/05/04,18:00,0.710,1.033,0.676,1.245,0.893,0.408,0.702,0.663,��,6.7,��
2020/05/04,18:10,0.711,1.029,0.675,1.244,0.893,0.406,0.703,0.663,��,9.3,��
2020/05/04,18:20,0.711,1.030,0.673,1.246,0.893,0.406,0.702,0.663,��,11.6,��
2020/05/04,18:30,0.711,1.029,0.673,1.245,0.891,0.406,0.703,0.664,��,9.1,��
2020/05/04,18:40,0.711,1.028,0.672,1.245,0.893,0.407,0.703,0.665,��,8.4,��
2020/05/04,18:50,0.712,1.032,0.675,1.245,0.892,0.408,0.703,0.665,��,6.6,��
2020/05/04,19:00,0.711,1.029,0.673,1.245,0.892,0.407,0.704,0.665,��,7.0,��
2020/05/04,19:10,0.712,1.029,0.673,1.246,0.896,0.408,0.705,0.664,��,5.4,��
2020/05/04,19:20,0.711,1.032,0.675,1.244,0.892,0.406,0.705,0.665,��,4.7,��
2020/05/04,19:30,0.713,1.031,0.674,1.246,0.894,0.407,0.705,0.666,��쐼,4.7,��
2020/05/04,19:40,0.715,1.034,0.676,1.246,0.895,0.409,0.705,0.664,��쐼,4.6,��
2020/05/04,19:50,0.715,1.032,0.677,1.245,0.895,0.407,0.704,0.666,��쐼,3.1,��
2020/05/04,20:00,0.713,1.032,0.675,1.245,0.894,0.409,0.706,0.666,�쐼,2.9,��
2020/05/04,20:10,0.713,1.032,0.675,1.247,0.896,0.408,0.705,0.664,�쐼,2.6,��
2020/05/04,20:20,0.712,1.033,0.675,1.246,0.895,0.408,0.707,0.665,��쐼,3.2,��
2020/05/04,20:30,0.714,1.030,0.676,1.247,0.898,0.409,0.705,0.666,��쐼,2.3,��
2020/05/04,20:40,0.713,1.031,0.675,1.244,0.895,0.409,0.705,0.664,�쐼,1.9,��
2020/05/04,20:50,0.715,1.032,0.674,1.246,0.897,0.407,0.705,0.667,�쐼,1.5,��
2020/05/04,21:00,0.716,1.031,0.675,1.246,0.896,0.409,0.706,0.665,���k��,2.6,��
2020/05/04,21:10,0.716,1.031,0.673,1.246,0.896,0.408,0.704,0.667,���k��,2.0,��
2020/05/04,21:20,0.714,1.030,0.675,1.247,0.895,0.407,0.705,0.666,��,2.6,��
2020/05/04,21:30,0.713,1.030,0.674,1.244,0.894,0.408,0.706,0.665,��,2.2,��
2020/05/04,21:40,0.714,1.031,0.676,1.244,0.894,0.408,0.705,0.665,��,1.2,��
2020/05/04,21:50,0.715,1.031,0.674,1.246,0.893,0.408,0.706,0.665,��,2.8,��
2020/05/04,22:00,0.714,1.029,0.674,1.245,0.894,0.407,0.705,0.665,��,2.8,��
2020/05/04,22:10,0.714,1.031,0.677,1.243,0.896,0.407,0.706,0.665,��,3.0,��
2020/05/04,22:20,0.713,1.031,0.674,1.246,0.894,0.408,0.707,0.665,��,3.2,��
2020/05/04,22:30,0.714,1.029,0.676,1.246,0.895,0.407,0.706,0.666,���k��,3.9,��
2020/05/04,22:40,0.715,1.030,0.676,1.246,0.895,0.408,0.708,0.664,�k�k��,1.4,��
2020/05/04,22:50,0.715,1.031,0.676,1.247,0.892,0.406,0.706,0.665,�k,2.5,��
2020/05/04,23:00,0.716,1.030,0.674,1.243,0.895,0.408,0.705,0.665,�k�k��,2.0,��
2020/05/04,23:10,0.716,1.029,0.676,1.244,0.894,0.407,0.706,0.667,�k��,2.6,��
2020/05/04,23:20,0.716,1.030,0.676,1.245,0.897,0.406,0.704,0.666,���k��,2.5,��
2020/05/04,23:30,0.716,1.031,0.674,1.244,0.894,0.408,0.705,0.666,���k��,4.1,��
2020/05/04,23:40,0.715,1.030,0.676,1.245,0.894,0.409,0.706,0.667,���k��,6.4,��
2020/05/04,23:50,0.717,1.029,0.677,1.246,0.895,0.408,0.706,0.665,��,6.3,��
